Location: Brantley
(31.5822°N, 86.2569°W)
Time: 09:34:09
(UTC+00:00)

Vanguard 2 - Visible Passes

Search period start: 19 February 2026 00:00
Search period end: 01 March 2026 00:00
Orbit: 553 x 2897 km, 32.9° (Epoch: 18 February)

Date Brightness Start Highest point End Pass type
(mag) Time Alt. Az. Time Alt. Az. Time Alt. Az.
19 Feb 10.6 08:41:27 12° ESE 08:41:27 12° ESE 08:41:50 10° ESE visible
19 Feb 8.0 10:42:23 32° SW 10:45:14 61° SSE 10:49:53 10° E visible
20 Feb 10.2 08:52:48 18° ESE 08:52:48 18° ESE 08:54:20 10° E visible
20 Feb 7.7 10:53:45 29° WSW 10:57:15 75° SSE 11:01:55 10° E visible
21 Feb 9.8 09:04:07 26° ESE 09:04:07 26° ESE 09:06:38 10° E visible
21 Feb 7.6 11:05:03 24° WSW 11:09:15 88° S 11:13:55 10° E visible
22 Feb 9.3 09:15:22 36° ESE 09:15:22 36° ESE 09:18:46 10° E visible
22 Feb 7.6 11:16:18 19° W 11:21:17 83° N 11:25:54 10° E visible
23 Feb 8.9 09:26:34 50° ESE 09:26:34 50° ESE 09:30:50 10° E visible
23 Feb 7.6 11:27:31 14° W 11:33:21 78° N 11:37:55 10° E visible
24 Feb 8.4 09:37:44 68° ESE 09:37:44 68° ESE 09:42:51 10° E visible
24 Feb 7.7 11:38:39 11° W 11:45:24 78° N 11:49:56 10° E visible
25 Feb 8.2 09:48:52 87° S 09:48:55 87° SSE 09:54:50 10° E visible
25 Feb 7.6 11:50:37 10° W 11:57:28 81° N 12:01:57 10° E visible
26 Feb 10.8 07:59:01 12° E 07:59:01 12° E 07:59:28 10° E visible
26 Feb 8.2 09:59:57 70° W 10:00:57 86° N 10:06:50 10° E visible
27 Feb 10.6 08:10:05 18° E 08:10:05 18° E 08:11:31 10° E visible
27 Feb 8.2 10:11:00 54° W 10:13:01 82° N 10:18:50 10° E visible
28 Feb 10.2 08:21:08 25° E 08:21:08 25° E 08:23:33 10° E visible
28 Feb 8.2 10:22:03 43° W 10:25:06 81° N 10:30:51 10° E visible
